星链-33867 (STARLINK-33867)

导读

STARLINK-33867是美国SpaceX星链计划中的卫星,于2025年5月2日发射升空,属于星链星座组网卫星。星链系统旨在为全球提供高速低延迟互联网接入服务,该卫星入轨后将进一步扩充星链星座规模,助力提升全球覆盖范围与服务容量,延续SpaceX大规模部署低轨互联网星座的进程。

基本信息
目录编号:
63795
目录名称:
STARLINK-33867
国际标识:
2025-091W
轨道中心:
EARTH
卫星名称:
星链-33867
卫星全名:
星链-33867 (STARLINK-33867)
卫星状态:
在轨 (已飞行491 天)
发射日期:
2025-05-02 UTC
国别 :
美国 (US)
星等 :
--
轨道信息
数据来源 国际轨道数据
星历时间: 2026-09-05T08:02:24+0800
12小时前
查看轨道信息
半长轴: 6861.168km
偏心率: 0.0001302
轨道倾角: 43.000°
近地点辐角 274.823°
升交点赤经 120.035°
平近点角 85.247°
近地点: 482.137km
远地点: 483.925km
周期: 94.266分钟
每日圈数: 15.275863
详细信息
固有亮度:
5
最大亮度:
2.5
卫星平台:
Starlink V1.0
覆盖范围:
全球
运营商:
太空探索技术公司
运营商所在国:
美国
制造商(研发单位):
太空探索技术公司
制造商所在国:
美国
使用方式:
暂无
卫星简介
Starlink 计划是 SpaceX 推出的全球卫星互联网项目,通过发射低轨道卫星,为全球尤其是偏远地区提供高速、低延迟的互联网服务。自 2019 年起,Starlink 已部署数千颗卫星,旨在缩小全球数字鸿沟,推动互联网普及。该项目还为军事、航空等行业提供通信支持,带来广泛经济效益。
2D轨道图
3D轨道图
轨道高度分析图
轨道倾角分析图
轨道综合分析图
查看轨道综合分析图